STARLINK-30438, 58035

Orbit data source: Space-Track

STARLINK-30438, 58035 is a payload satellite owned by SpaceX/Seattle (US) in LEO that was launched on Mon, 09 Oct 2023 UTC via an FALCON 9 launch vehicle from the Air Force Western Test Range (AFWTR). Payload-class satellites include a variety of spacecraft equipped with specific instruments for various scientific and technological missions. These include communications satellites like Starlink; space stations such as the ISS; scientific satellites like the Hubble; Earth observation satellites from companies like Planet Labs, Umbra, and HawkEye 360; GPS; miniature CubeSats for education and research; and military/defense satellites.

Loading next visibility...
Identifier
58035, 2023-156H
Orbit
LEO
Country
Flag of USUS
Related business
Manufacturer
SpaceX/Seattle
Mission
Operational Commercial Communications
Bus & Motor
STARLINK V2M, Unknown motor
Mass
730 kg wet, ~700 kg dry
Launch date (UTC)
2023-10-09 (2 years ago)
Launch vehicle
FALCON 9
Launch site
Air Force Western Test Range (AFWTR)
Object type
Payload
Rocket body
Debris
Shape & HBR
Box + 2 Pan, 17.7 m
Radar Cross Section
33.884 m², Large (>1 m²)

Expand to show TLE details & history
Last TLE update: 23 hours ago

TLE from 23 hours ago
0 STARLINK-30438
1 58035U 23156H   25348.67569236  .00000046  00000-0  13674-4 0  9999
2 58035  53.1598 112.9930 0000945  71.8493 288.2611 15.30188788123259
Epoch: 2025-12-14T16:12Z
TLE epoch observation values (Epoch: 2025-12-14T16:12:59.819Z)
Latitude
-0.00001°
Longitude
146.15855°
Altitude
475.945 km
Speed
7.629 km/s
True Right ascension
07h 31m 58s
True Declination
0° 00' 00"
Sunlit
Object was in full shadow at epoch
Visualization orbit readout
Latitude
Unknown
Longitude
Unknown
Altitude
Unknown
Speed
Unknown
Apparent Right ascension
Unknown
Apparent Declination
Unknown
Sunlit
N/A
Visualization observer readout
Local Sidereal Time
13:25:43
Azimuth
Unknown
Elevation
Unknown
Doppler factor
Unknown
Orbital elements
Apogee altitude
476.153 km
Perigee altitude
474.857 km
Semi-major axis
6,853.642 km
Eccentricity
0.00009
Inclination
53.1598°
RAAN
112.993°
Arg. of periapsis
71.8493°
True anomaly
288.25082°
Mean anomaly
288.2611°
Eccentric anomaly
288.25596°
Mean motion
3.82526 °/min
Orbital period
94.11 mins
BSTAR
0.000013674
Loading maneuver chart data...
Computing Atmospheric mass density...
Loading historical data...
Loading historical data...
Loading historical data...
Loading historical data...
Loading historical data...
Loading historical data...
Loading historical data...

Documentation

Showing up to 5 results
|